Lexington Weather

Lexington, Massachusetts, USA

34°F
4/16/2021 11:24am 
  • Lexington Conditions: Light snow, Mist, Overcast
  • Temperature: 34.0°F / 1.1°C 
  • Dew Point: 32.7°F 
  • Relative Humidity: 95
  • Wind: Wind from NNE NNE Calm, 10-min avg: 1 mph, gust: 3 mph
  • Barometer: 29.45 inFalling 0.04  inHg/hr Falling Slowly
  • Visibility: ¾ mile
  • Snow Today: 1.7 in
  •   

Regional Weather Roundup
for Boston / Norton, MA

        
000
ASUS41 KBOX 161304
RWRBOX

REGIONAL WEATHER ROUNDUP
NATIONAL WEATHER SERVICE BOSTON/NORTON MA
900 AM EDT FRI APR 16 2021

NOTE:  "FAIR" INDICATES FEW OR NO CLOUDS BELOW 12,000 FEET WITH NO 
SIGNIFICANT WEATHER AND/OR OBSTRUCTIONS TO VISIBILITY.

MAZALL-161400-
EASTERN MASSACHUSETTS
  
CITY           SKY/WX    TMP DP  RH WIND       PRES   REMARKS
BOSTON         LGT SNOW  38  34  85 N21G29    29.51F FOG     WCI  28  
BEVERLY        RAIN      37  34  89 N14G28    29.52F FOG     WCI  28  
LAWRENCE       HVY RAIN  36  34  92 N16       29.58F FOG     WCI  26  
BEDFORD        LGT SNOW  35  33  92 N12       29.54F FOG     WCI  27  
BLUE HILL        N/A     32  32 100 N13G23    29.48F WCI  22          
NORWOOD        RAIN      38  34  85 N10G18    29.52F FOG     WCI  31  
MARSHFIELD     RAIN      43  41  93 N14G26    29.48R                  
PLYMOUTH       RAIN      41  39  93 N23G38    29.44F FOG     WCI  31  
TAUNTON        RAIN      40  36  86 NW10G18   29.49R FOG              
NEW BEDFORD    RAIN      41  39  93 NW9       29.45F FOG              
$$

MAZALL-161400-
CAPE COD AND THE ISLANDS
  
CITY           SKY/WX    TMP DP  RH WIND       PRES   REMARKS
FALMOUTH       NOT AVBL                                               
HYANNIS        RAIN      46  44  93 NE12G24   29.30F VSB 3/4          
CHATHAM        LGT RAIN  45  43  93 E21G35    29.32F FOG              
PROVINCETOWN   LGT RAIN  42  41  96 E30G43    29.38F FOG     WCI  31  
NANTUCKET      PTSUNNY   48  48 100 SW18      29.27F                  
MARTHAS VNYRD  LGT RAIN  44  43  96 NW20G32   29.37F VSB 1            
$$
 
MAZALL-161400-
CENTRAL AND WESTERN MASSACHUSETTS
  
CITY           SKY/WX    TMP DP  RH WIND       PRES   REMARKS
WORCESTER      SNOW      34  31  88 N13       29.53F VSB 1/2 WCI  25  
FITCHBURG      LGT SNOW  33  33 100 NW7       29.58F VSB 3/4 WCI  27  
ORANGE         LGT SNOW  34  33  96 NW8       29.60F FOG     WCI  27  
SPRINGFIELD    LGT SNOW  33  33  99 N7        29.60F FOG     WCI  27  
WESTFIELD      RAIN      35  34  96 N5        29.61F WCI  31          
NORTH ADAMS    LGT SNOW  34  34 100 W3        29.64F FOG              
PITTSFIELD     LGT SNOW  33  32  96 CALM      29.59F FOG              
$$
 
RIZALL-161400-
RHODE ISLAND
  
CITY           SKY/WX    TMP DP  RH WIND       PRES   REMARKS
PROVIDENCE     RAIN      38  36  92 NW12      29.52F FOG     WCI  30  
NEWPORT        LGT RAIN  38  36  92 NW15      29.49S FOG     WCI  29  
BLOCK ISLAND   MIX PCPN  36  34  92 NW15G24   29.54S WCI  27          
SMITHFIELD     LGT SNOW  35  35 100 N10G20    29.52F FOG     WCI  27  
WESTERLY       LGT RAIN  33  33 100 NW9       29.55F WCI  25          
$$
 
CTZALL-161400-
CONNECTICUT
  
CITY           SKY/WX    TMP DP  RH WIND       PRES   REMARKS
BRADLEY INTL   LGT RAIN  37  34  89 NW8       29.61F WCI  31          
HARTFORD       LGT RAIN  38  34  85 N8        29.61F                  
BRIDGEPORT     CLOUDY    44  37  76 NW10      29.62F                  
DANBURY        PTSUNNY   42  35  76 NW6       29.64S                  
GROTON         LGT RAIN  37  35  92 NW14G21   29.56F WCI  28          
NEW HAVEN      CLOUDY    44  37  76 NW8       29.60F                  
CHESTER        CLOUDY    37  37 100 N10G17    29.58F WCI  30          
MERIDEN        CLOUDY    41  36  82 N9        29.60F                  
WILLIMANTIC    LGT SNOW  34  32  92 NW3       29.57F FOG              
OXFORD         CLOUDY    38  38 100 VRB7      29.60F                  
$$

MEZ002-015-021-024-NHZ003-005-008-011-012-014-VTZ005-008-161400-
NORTHERN NEW ENGLAND
  
CITY           SKY/WX    TMP DP  RH WIND       PRES   REMARKS
PORTLAND ME    RAIN      39  37  92 NE21G30   29.66F FOG     WCI  29  
BANGOR ME      CLOUDY    38  32  79 NE14G28   29.80F WCI  30          
CONCORD NH     LGT RAIN  36  33  89 N10       29.63F WCI  28          
MANCHESTER NH  LGT SNOW  34  32  92 N10       29.58F FOG     WCI  26  
NASHUA NH      LGT SNOW  33  33 100 NW8       29.59F FOG     WCI  26  
PORTSMOUTH NH  LGT RAIN  37  34  87 NE15G25   29.62F FOG     WCI  28  
JAFFREY NH     HVY SNOW  34  32  92 CALM      29.58S VSB 1/4          
KEENE NH       FLURRIES  34  34 100 N7        29.62F WCI  28          
BURLINGTON VT  LGT RAIN  39  35  86 N7        29.72S                  
MT. WASHINGTON SNOW      16  16 100 E53G66      N/A  VSB 1/16WCI  -9  
$$

NYZ052-076-161400-
EASTERN NEW YORK
  
CITY           SKY/WX    TMP DP  RH WIND       PRES   REMARKS
ALBANY         LGT SNOW  31  31 100 NW6       29.67F FOG     WCI  25  
NEW YORK CITY  MOSUNNY   46  33  60 NW16      29.65F                  
$$
 
ANZALL-161400-
MARINE OBSERVATIONS
  
STATION/POSITION TIME  TEMP    WIND        PRES    VSBY  WAVE
                       AIR SEA DIR/SP/G                  HT/PER
                 (UTC) (F)     (DEG/KT/KT) (MB)    (MI)  (FT/S)
BOSTON BUOY      1240   40 44   20/ 27/ 35  998.6F
BUZZARDS BAY     1200          320/ 21/ 23  998.5F
NANTUCKET SOUND  1240      47                N/A
MASS BAY-STELLWA 1204   41      40/ 27/ 35  998.8F  1 3/8  8/ 6
ISLE OF SHOALS   1200   38      50/ 31/ 34 1001.0F
S OF BLOCK IS    1226      44                N/A           8/ 5
$$

......................KEY.........................
  SKY/WX - SKY CONDITION/PRESENT WEATHER
  TMP    - TEMPERATURE IN FAHRENHEIT
  DWPT   - DEWPOINT IN FAHRENHEIT
  RH     - RELATIVE HUMIDITY IN PERCENT
  WIND   - DIRECTION AND SPEED IN MPH
  PRES   - MEAN SEA LEVEL PRESSURE IN INCHES OF HG
  WCI    - WIND CHILL INDEX
  VSB    - VISIBILITY IN MILES
  HX     - HEAT INDEX
  TC     - TEMPERATURE IN CELSIUS
  VRB    - VARIABLE WIND DIRECTION
  N/A    - NOT AVAILABLE
  
      

Other recent Regional Weather Roundups

Fri Apr 16, 11:04am

Fri Apr 16, 10:05am

Fri Apr 16, 8:04am

Fri Apr 16, 7:04am

Fri Apr 16, 6:04am

Fri Apr 16, 5:04am

Fri Apr 16, 4:04am

Fri Apr 16, 3:04am

Fri Apr 16, 2:04am

Fri Apr 16, 1:04am

Fri Apr 16, 12:04am

Thu Apr 15, 11:05pm

Thu Apr 15, 10:04pm

Thu Apr 15, 9:04pm

Thu Apr 15, 8:04pm

Thu Apr 15, 7:05pm

Thu Apr 15, 6:04pm

Thu Apr 15, 5:05pm

Thu Apr 15, 4:04pm

Thu Apr 15, 3:05pm

Thu Apr 15, 2:04pm

Thu Apr 15, 1:05pm

Thu Apr 15, 12:04pm

Thu Apr 15, 11:04am

Thu Apr 15, 10:05am

Thu Apr 15, 9:04am

Thu Apr 15, 8:04am

Thu Apr 15, 7:04am

Thu Apr 15, 6:04am

Thu Apr 15, 5:04am

Thu Apr 15, 4:04am

Thu Apr 15, 3:04am

Thu Apr 15, 2:04am

Thu Apr 15, 1:04am

Thu Apr 15, 12:04am

Wed Apr 14, 11:04pm

Wed Apr 14, 10:04pm

Wed Apr 14, 9:04pm

Wed Apr 14, 8:04pm

Wed Apr 14, 7:04pm

Wed Apr 14, 6:04pm

Wed Apr 14, 5:05pm

Wed Apr 14, 4:04pm

Wed Apr 14, 3:05pm

Wed Apr 14, 2:04pm

Wed Apr 14, 1:05pm

Wed Apr 14, 12:04pm

Wed Apr 14, 11:04am

Wed Apr 14, 10:04am

Wed Apr 14, 9:04am

Wed Apr 14, 8:04am

Wed Apr 14, 7:04am

Wed Apr 14, 6:04am

Wed Apr 14, 5:04am

Wed Apr 14, 4:04am

Wed Apr 14, 3:04am

Wed Apr 14, 2:04am

Wed Apr 14, 1:04am

Wed Apr 14, 12:04am

Tue Apr 13, 11:04pm

Tue Apr 13, 10:05pm

Tue Apr 13, 9:05pm

Tue Apr 13, 8:05pm

Tue Apr 13, 7:04pm

Tue Apr 13, 6:04pm

Tue Apr 13, 5:05pm

Tue Apr 13, 4:04pm

Tue Apr 13, 3:04pm

Tue Apr 13, 2:05pm

Tue Apr 13, 1:04pm

Tue Apr 13, 12:05pm

Tue Apr 13, 11:05am

Tue Apr 13, 10:04am

Tue Apr 13, 9:04am

Tue Apr 13, 8:04am

Tue Apr 13, 7:04am

Tue Apr 13, 6:04am

Tue Apr 13, 5:04am

Tue Apr 13, 4:04am

Tue Apr 13, 3:04am

Tue Apr 13, 2:04am

Tue Apr 13, 1:04am

Tue Apr 13, 12:05am

Mon Apr 12, 11:04pm

Mon Apr 12, 10:04pm

Mon Apr 12, 9:04pm

Mon Apr 12, 8:04pm

Mon Apr 12, 7:05pm

Mon Apr 12, 6:04pm

Mon Apr 12, 5:04pm

Mon Apr 12, 4:04pm

Mon Apr 12, 3:05pm

Mon Apr 12, 2:04pm

Mon Apr 12, 1:05pm

Mon Apr 12, 12:04pm

Mon Apr 12, 11:04am

Mon Apr 12, 10:04am

Mon Apr 12, 9:04am

Mon Apr 12, 8:04am

Mon Apr 12, 7:04am

Mon Apr 12, 6:04am

Mon Apr 12, 5:04am

Mon Apr 12, 4:04am

Mon Apr 12, 3:04am

Mon Apr 12, 2:04am

Mon Apr 12, 1:05am

Mon Apr 12, 12:04am

Sun Apr 11, 11:04pm

Sun Apr 11, 10:04pm

Sun Apr 11, 9:04pm

Sun Apr 11, 8:04pm

Sun Apr 11, 7:04pm

Sun Apr 11, 6:05pm

Sun Apr 11, 5:05pm

Sun Apr 11, 4:04pm

Sun Apr 11, 3:05pm

Sun Apr 11, 2:05pm

Sun Apr 11, 1:05pm

Sun Apr 11, 12:04pm

Sun Apr 11, 11:05am

Sun Apr 11, 10:05am

Sun Apr 11, 9:04am

Sun Apr 11, 8:04am

Sun Apr 11, 7:04am

Sun Apr 11, 6:04am

Sun Apr 11, 5:04am

Sun Apr 11, 4:04am

Sun Apr 11, 3:04am

Sun Apr 11, 2:04am

Sun Apr 11, 1:05am

Sun Apr 11, 12:04am

Sat Apr 10, 11:05pm

Sat Apr 10, 10:04pm

Sat Apr 10, 9:04pm

Sat Apr 10, 8:04pm

Sat Apr 10, 7:05pm

Sat Apr 10, 6:04pm

Sat Apr 10, 5:04pm

Sat Apr 10, 4:04pm

Sat Apr 10, 3:04pm

Sat Apr 10, 2:05pm

Sat Apr 10, 1:04pm

Sat Apr 10, 12:04pm

Sat Apr 10, 11:04am

Sat Apr 10, 10:04am

Sat Apr 10, 9:04am

Sat Apr 10, 8:04am

Sat Apr 10, 7:04am

Sat Apr 10, 6:04am

Sat Apr 10, 5:04am

Sat Apr 10, 4:04am

Sat Apr 10, 3:04am

Sat Apr 10, 2:04am

Sat Apr 10, 1:05am

Sat Apr 10, 12:04am

Fri Apr 9, 11:04pm

Fri Apr 9, 10:05pm

Fri Apr 9, 9:04pm

Fri Apr 9, 8:05pm

Fri Apr 9, 7:05pm

Fri Apr 9, 6:04pm

Fri Apr 9, 5:04pm

Fri Apr 9, 4:05pm

Fri Apr 9, 3:05pm

Fri Apr 9, 2:04pm

Fri Apr 9, 1:04pm

Fri Apr 9, 12:04pm

Meta data:

ID: cced4e2e-d653-41f0-9954-321a1c86d968
Link: https://api.weather.gov/products/cced4e2e-d653-41f0-9954-321a1c86d968